Regional Weather Roundup
Issued by NWS

Home | Current Version | Previous Version | Text Only | Print | Product List | Glossary On
Versions: 1 2 3 4 5 6 7 8 9 10 11 12 13 14 15 16 17 18 19 20 21 22 23 24 25 26 27 28 29 30 31 32 33 34 35 36 37 38 39 40 41 42 43 44 45 46 47 48 49 50
000
ASUS43 KTOP 240459
RWRKS

WEATHER ROUNDUP FOR KANSAS
NATIONAL WEATHER SERVICE GOODLAND KS
1200 AM CDT SUN SEP 24 2017

NOTE:  "FAIR" INDICATES FEW OR NO CLOUDS BELOW 12,000 FEET WITH NO
SIGNIFICANT WEATHER AND/OR OBSTRUCTIONS TO VISIBILITY.

KSZ001>006-013>018-027>032-041>047-240600-
NORTHWEST KANSAS

CITY           SKY/WX    TMP DP  RH WIND       PRES   REMARKS
GOODLAND       HVY RAIN  60  60 100 SE12      29.88S FOG
HAYS           MOCLDY    75  60  59 SE12      29.87S
HILL CITY      CLOUDY    69  63  81 W17G24    29.89R
RUSSELL        PTCLDY    77  61  57 S17G25    29.86R
$$

KSZ061>065-074>080-084>089-240600-
SOUTHWEST KANSAS

CITY           SKY/WX    TMP DP  RH WIND       PRES   REMARKS
DODGE CITY     CLOUDY    75  59  57 SE20      29.88R
GARDEN CITY    LGT RAIN  66  64  93 SE9       29.87F
GREAT BEND     PTCLDY    74  61  63 SE14      29.88R
LIBERAL        LGT RAIN  66  64  93 NW7       29.89R
$$

KSZ066>073-081>083-090>101-240600-
SOUTHEAST KANSAS

CITY           SKY/WX    TMP DP  RH WIND       PRES   REMARKS
CHANUTE        CLEAR     73  66  78 E8        29.94F
COFFEYVILLE    CLEAR     69  66  90 CALM      29.92F
HUTCHINSON     CLEAR     75  64  68 SE12      29.89S
MEDICINE LODGE   N/A     76  61  59 SE10      29.88R
NEWTON         CLEAR     71  63  75 SE10      29.93S
PARSONS        CLEAR     67  64  90 CALM      29.94F
WICHITA INTL   CLEAR     76  65  68 SE12      29.90S
WICHITA JABRA  CLEAR     73  65  75 SE7       29.91S
WINFIELD       CLEAR     76  66  71 SE7       29.92F
$$

KSZ007>012-019>026-033>040-048>060-102>105-240600-
NORTHEAST KANSAS

CITY           SKY/WX    TMP DP  RH WIND       PRES   REMARKS
CONCORDIA      CLEAR     75  62  64 SE15      29.88S
EMPORIA        CLEAR     74  62  66 SE9       29.93S
LAWRENCE       CLEAR     70  68  93 E6        29.94S
MANHATTAN      CLEAR     76  64  66 S8        29.90S
OLATHE IND     CLEAR     74  67  78 SE6       29.96F
OLATHE EXE     CLEAR     74  68  81 SE5       29.96F
SALINA         CLEAR     78  62  57 SE14      29.89S
TOPEKA BILLARD CLEAR     71  66  84 E3        29.92F
TOPEKA FORBES  CLEAR     70  66  87 SE3       29.93F
$$



USA.gov is the U.S. government's official web portal to all federal, state and local government web resources and services.